Regional Weather Roundup
Issued by NWS

Home | Current Version | Previous Version | Graphics & Text | Print | Product List | Glossary On
Versions: 1 2 3 4 5 6 7 8 9 10 11 12 13 14 15 16 17 18 19 20 21 22 23 24 25 26 27 28 29 30 31 32 33 34 35 36 37 38 39 40 41 42 43 44 45 46 47 48 49 50
000
ASUS43 KDMX 231901
RWRIA

WEATHER ROUNDUP FOR IOWA
NATIONAL WEATHER SERVICE DES MOINES IA
100 PM CST THU NOV 23 2017

NOTE: "FAIR" INDICATES FEW OR NO CLOUDS BELOW 12,000 FEET WITH NO
SIGNIFICANT WEATHER AND/OR OBSTRUCTIONS TO VISIBILITY.

* - THESE STATIONS ARE NOT NWS STATIONS...THUS NOT UNDER NWS
QUALITY CONTROL.  THEY ALSO DO NOT REPORT WEATHER SUCH
AS PRECIPITATION OR FOG.

IAZ001>003-012>014-020>022-031>034-043>046-232000-
   NORTHWEST IOWA

CITY           SKY/WX    TMP DP  RH WIND       PRES   REMARKS
CARROLL *      CLOUDY    54  32  43 W6        29.93F
CHEROKEE *     SUNNY     52  32  46 W6        29.92F
DENISON *      SUNNY     55  34  44 W7        29.95F
LE MARS *      CLOUDY    55  34  44 S7        29.90F
ORANGE CITY *  CLOUDY    54  36  50 SW5       29.90F
SHELDON *      SUNNY     52  32  46 SW9       29.88F
SIOUX CITY     CLOUDY    54  35  48 S7        29.92F
SPENCER        SUNNY     52  31  44 SW10      29.91F
STORM LAKE *   SUNNY     50  32  50 W10       29.92F
$$

IAZ055>058-069>071-079>083-090>094-232000-
   SOUTHWEST IOWA

CITY           SKY/WX    TMP DP  RH WIND       PRES   REMARKS
ATLANTIC *     SUNNY     57  34  41 NW5       29.95F
AUDUBON *      SUNNY     55  34  44 CALM      29.94F
CLARINDA *     SUNNY     59  36  41 CALM        N/A
COUNCIL BLFS * SUNNY     57  36  44 NW7       29.96F
CRESTON *      SUNNY     55  34  44 N7        29.96F
HARLAN  *      SUNNY     57  36  44 W10       29.98F
LAMONI         SUNNY     57  35  43 N8        29.95F
RED OAK *      SUNNY     59  36  41 VRB5      29.96F
SHENANDOAH *   SUNNY     59  36  41 VRB3      29.97F
$$

IAZ047>049-059>061-072>074-084-232000-
   CENTRAL IOWA

CITY           SKY/WX    TMP DP  RH WIND       PRES   REMARKS
AMES           SUNNY     51  31  46 NW6       29.94F
ANKENY *       SUNNY     48  30  49 W7        29.96F
BOONE *        SUNNY     50  30  46 W8        29.93F
CHARITON *     SUNNY     52  30  43 NW7G13    29.95S
DES MOINES     PTSUNNY   51  29  42 NW8       29.95F
GRINNELL*      SUNNY     50  29  43 NW7       29.94F
KNOXVILLE *    SUNNY     50  28  43 NW10      29.94S
MARSHALLTOWN   SUNNY     50  29  44 NW6       29.92F
NEWTON *       SUNNY     50  28  43 NW8       29.94F
PELLA *        SUNNY     48  28  45 CALM      29.96F
PERRY *          N/A     50  28  42 NW5       29.95F
$$

IAZ004>006-015-016-023>025-035-036-232000-
   NORTH CENTRAL IOWA

CITY           SKY/WX    TMP DP  RH WIND       PRES   REMARKS
ALGONA *       SUNNY     46  30  53 SW9       29.92F
CLARION *      SUNNY     48  28  46 W8        29.93S
ESTHERVILLE    CLOUDY    48  30  49 SW8       29.90F
FORT DODGE *   SUNNY     49  30  48 W3        29.93F
MASON CITY     SUNNY     45  24  43 MISG      29.92F
FOREST CITY *    N/A     46  27  46 W6        29.91F
WEBSTER CITY * SUNNY     48  28  46 VRB6      29.91F
IOWA FALLS *     N/A     48  29  47 NW5       29.93F
$$

IAZ007>011-017>019-026>030-037>042-050>054-066-232000-
   NORTHEAST IOWA

CITY           SKY/WX    TMP DP  RH WIND       PRES   REMARKS
CEDAR RAPIDS   SUNNY     48  26  42 NW7       29.92F
CHARLES CITY * SUNNY     45  23  42 VRB5      29.91F
CLINTON *      SUNNY     45  25  45 W5        29.93F
DECORAH *      SUNNY     43  23  45 N7        29.90F
DUBUQUE        SUNNY     45  25  45 NW8       29.92F
MONTICELLO *   SUNNY     46  25  42 W7G13     29.92S
OELWEIN *      SUNNY     45  27  49 N7        29.92F
WATERLOO       SUNNY     46  24  42 W7        29.92F
$$

IAZ064-065-067-068-078-232000-
   EAST CENTRAL IOWA

CITY           SKY/WX    TMP DP  RH WIND       PRES   REMARKS
DAVENPORT      SUNNY     45  25  45 W8        29.95F
IOWA CITY      SUNNY     49  25  39 W5        29.95F
MT. PLEASANT * SUNNY     49  26  40 CALM      29.95F
MUSCATINE *    SUNNY     48  25  40 VRB3      29.95F
QUAD CITIES    SUNNY     47  24  40 W3        29.93F
$$

IAZ062-063-075>077-085>089-095>099-232000-
   SOUTHEAST IOWA

CITY           SKY/WX    TMP DP  RH WIND       PRES   REMARKS
BURLINGTON     SUNNY     48  28  46 SW7       29.95S
FAIRFIELD *    SUNNY     48  27  43 W8        29.94F
FORT MADISON * SUNNY     48  28  46 NW7       29.96S
KEOKUK *       SUNNY     50  28  43 W8        29.95S
OSKALOOSA *      N/A     49  28  44 W6        29.95F
OTTUMWA        SUNNY     50  29  44 W7        29.94F
WASHINGTON *   SUNNY     48  27  43 W5        29.95F
$$

ABBREVIATIONS USED IN REMARKS
   TC - TEMPERATURES IN CELSIUS
  WCI - WIND CHILL INDEX
   HX - HEAT INDEX
  VSB - VISIBILITY
$$





USA.gov is the U.S. government's official web portal to all federal, state and local government web resources and services.